Regional Weather Roundup
Issued by NWS Jackson, KY

Home | Current Version | Previous Version | Graphics & Text | Print | Product List | Glossary On
Versions: 1 2 3 4 5 6 7 8 9 10 11 12 13 14 15 16 17 18 19 20 21 22 23 24 25 26 27
000
ASUS43 KJKL 191910
RWRJKL

EAST KENTUCKY HOURLY WEATHER ROUNDUP
NATIONAL WEATHER SERVICE JACKSON KY
300 PM EDT THU APR 19 2018

NOTE: "FAIR" INDICATES FEW OR NO CLOUDS BELOW 12,000 FEET WITH
NO SIGNIFICANT WEATHER AND/OR OBSTRUCTIONS TO VISIBILITY.

* THESE REPORTS ARE NOT UNDER NWS QUALITY CONTROL AND MAY NOT
  REPORT WEATHER SUCH AS PRECIPITATION AND FOG.

KYZ079-080-083-085-087-088-110-112-115-119-120-192000
...EASTERN KENTUCKY...

CITY           SKY/WX    TMP DP  RH WIND       PRES   REMARKS
JACKSON        CLOUDY    41  29  62 W7        30.24R
LONDON         CLOUDY    44  30  57 NW13G22   30.26R
SOMERSET*      CLOUDY    45  30  57 N10       30.30R
MONTICELLO*    CLOUDY    46  31  55 N14G24    30.31R
WILLIAMSBURG*  CLOUDY    46  28  49 NW10      30.26R
MIDDLESBORO*   PTSUNNY   50  32  50 NW16G23   30.24R
HARLAN APT*    CLOUDY    46  26  46 N9G22     30.21R
PIKE CO APT*   CLOUDY    41  30  65 NW12G18   30.21R
BIG SANDY APT* CLOUDY    43  31  62 NW6       30.22R
MOREHEAD APT*  CLOUDY    46  30  53 N13G18    30.27R
ASHLAND*       CLOUDY    45  35  68 NW16G24   30.24R
$$

KYZ035-036-041-042-044-050-067-078-099-192000
...CENTRAL KENTUCKY...

CITY           SKY/WX    TMP DP  RH WIND       PRES   REMARKS
MT STERLING*   CLOUDY    43  32  65 NW8       30.29R
FLEMING/MASON* CLOUDY    43  30  60 N9G17     30.27R
DANVILLE*      CLOUDY    43  32  65 N3        30.30R
LEXINGTON      CLOUDY    45  32  60 NW8       30.28R
FRANKFORT      CLOUDY    47  31  53 NW10      30.28R
LOUISVILLE     PTSUNNY   50  32  50 N8G21     30.31R
GLASGOW*       CLOUDY    47  31  54 N8        30.32R
BOWLING GREEN  CLOUDY    49  31  49 MISG      30.32R
$$

KYZ091>093-OHZ055-061-077-WVZ005-015-034-035-042-192000
...SOUTHERN OHIO/WEST VIRGINIA...

CITY           SKY/WX    TMP DP  RH WIND       PRES   REMARKS
COVINGTON      PTSUNNY   49  30  48 N13G21    30.26R
COLUMBUS       PTSUNNY   48  31  51 NW18      30.20R
DAYTON           N/A     50  32  50 NW14G23   30.24R
WILMINGTON     PTSUNNY   46  33  60 NW13G24   30.24R
HUNTINGTON     CLOUDY    45  30  55 NW12      30.22R
CHARLESTON     PTSUNNY   45  31  58 W10G20    30.17R
PINEVILLE*     CLOUDY    41  30  64 MISG        N/A
BECKLEY        CLOUDY    36  28  73 NW12G21   30.10R WCI  28
BLUEFIELD      CLOUDY    34  25  69 NW14G29   30.10R WCI  25
LOGAN CO APT*  CLOUDY    41  30  65 NW7G16    30.17R
$$

VAZ002-007-008-TNZ017-027-036-066-071-192000
...SOUTHWEST VIRGINIA/EAST TENNESSEE...

CITY           SKY/WX    TMP DP  RH WIND       PRES   REMARKS
WISE*          CLOUDY    39  30  70 W10G18    30.17R WCI  32
JONESVILLE*      N/A     50  28  43 NW8G16    30.22R
ABINGDON*      CLOUDY    45  29  52 N12G22    30.15R
BRISTOL        PTSUNNY   52  32  46 NW9G21    30.16R
MORRISTOWN*    PTCLDY    50  30  46 VRB6G15   30.19R
SEVIERVILLE*   PTCLDY    52  28  40 VRB7G17   30.20R
KNOXVILLE        N/A     51  30  44 N12G18    30.20R
LAFOLLETTE*    MOCLDY    50  28  43 VRB6G15   30.26R
OAK RIDGE      PTSUNNY   54  32  43 VRB5      30.22R
CROSSVILLE     PTSUNNY   47  28  47 NW13      30.22R
NASHVILLE      PTSUNNY   53  30  41 N15G24    30.31R
$$

...KEY TO REMARKS...
VSB - VISIBILITY IN MILES
WCI - WIND CHILL INDEX
HX  - HEAT INDEX

$$




USA.gov is the U.S. government's official web portal to all federal, state and local government web resources and services.